Location: Brachbach
(49.1847°N, 9.7240°E)
Time: 21:40:01
(UTC+00:00)

Cosmos 2219 Rocket - Pass Details

Date: 14 August 2024
Orbit: 826 x 846 km, 71.0° (Epoch: 09 September)

Event Time Altitude Azimuth Distance (km) Brightness Sun altitude
Exits shadow 02:28:02 - 278° (W) 2,781 4.5 -14.9°
Reaches altitude 10° 02:29:18 10° 287° (WNW) 2,474 4.3 -14.8°
Maximum altitude 02:32:50 17° 326° (NW) 2,048 4.3 -14.4°
Drops below altitude 10° 02:36:24 10° 5° (N) 2,482 5.3 -13.9°
Sets 02:39:51 0° 26° (NNE) 3,419 6.7 -13.5°
